Regional Weather Roundup
Issued by NWS

Home | Current Version | Previous Version | Text Only | Print | Product List | Glossary On
Versions: 1 2 3 4 5 6 7 8 9 10 11 12 13 14 15 16 17 18 19 20 21 22 23 24 25 26 27 28
000
ASCA42 TJSJ 192210
RWRPR
PUERTO RICO/U.S. VIRGIN ISLANDS HOURLY WEATHER ROUNDUP
NATIONAL WEATHER SERVICE SAN JUAN PR
600 PM AST THU JAN 19 2017

PRZ001>002-007>008-010-192300-
PUERTO RICO

CITY           SKY/WX    TMP DP  RH WIND       PRES   REMARKS
SAN JUAN LMM   PTCLDY    77  63  61 E5        29.95R
PONCE          PTCLDY    79  68  69 CALM      29.96
AGUADILLA      CLEAR     75  64  69 E7        29.97R
CEIBA          CLEAR     75  66  73 CALM      29.97R
$$

VIZ001>002-192300-
U.S. VIRGIN ISLANDS

CITY           SKY/WX    TMP DP  RH WIND       PRES   REMARKS
CHARLOTTE AMA  PTCLDY    77  64  65 NE8       29.94S
CHRISTIANSTED  PTCLDY    75  64  69 NE5       29.95S
$$

HOURLY WEATHER ROUNDUP FOR THE NEWS MEDIA

CITY           SKY/WX    TMP DP  RH WIND       PRES   REMARKS
ORLANDO        PTCLDY    78  60  53 S6        29.97F
NEW YORK       CLOUDY    46  31  55 NW14      30.01R
NEWARK         CLOUDY    45  34  65 W10G18    30.01R
CHICAGO        CLOUDY    41  36  82 E6        29.87F HAZE
HARTFORD       CLOUDY    45  33  63 CALM      29.94S
BOSTON         MOCLDY    43  33  68 N6        29.95F
DALLAS         MOSUNNY   65  51  60 S18       29.63F
PHILADELPHIA   CLOUDY    46  34  62 NE5       30.03S
LOS ANGELES    MOSUNNY   61  49  64 W22       29.89F
WASHINGTON DC  MOCLDY    49  35  58 CALM      30.01F



USA.gov is the U.S. government's official web portal to all federal, state and local government web resources and services.